STARLINK-1723 (46333 NORAD) Tracking and Keplerian Element Data

This shows tracking and keplerian element data for the satellite.

Feedback or suggestion? Click here.




ElementValue
Catalog46333
NameSTARLINK-1723
Epoch Orbit177
Epoch Day267.58334491
Epoch Year2020
RAAN331.0635
Inclination52.9998
Eccentricity0.0001591
Argument of Perigee64.5111
Mean Anonmoly178.9642
Mean Motion15.62741675
Decay Rate0.00043077
L11 46333U 20062J 20267.58334491 .00043077 00000-0 47398-3 0 9998
L22 46333 52.9998 331.0635 0001591 64.5111 178.9642 15.62741675 1774

Live tracking and technical data element details for STARLINK-1723 (NORAD 46333). STARLINK-1723 can be tracked NOW for your location showing map with azimuth and elevation plus other details from your city location.

Track the satellite on the map from your city or location and see movement details for azimuth, elevation, latitude, longitude, range, height, and movement on the map or in text.







IsCatalogInMostPopularTable: catalog: 46333, numindb: 3
Update: records affected: 1



GetName: 46333 STARLINK-1723

Hit Count: updated at: Thu, 24 Sep 2020 17:59:19 GMT